Location: Eastlake (historical)
(39.0077°N, 122.6678°W)
Time: 09:48:30
(UTC+00:00)

ALOS - Pass Details

Date: 21 April 2021
Orbit: 682 x 685 km, 97.9° (Epoch: 08 May)

Event Time Altitude Azimuth Distance (km) Brightness Sun altitude
Rises 12:46:39 0° 7° (N) 3,054 6.0 -7.9°
Reaches altitude 10° 12:48:56 10° 2° (N) 2,134 5.2 -7.5°
Maximum altitude 12:53:28 53° 287° (WNW) 837 2.5 -6.6°
Drops below altitude 10° 12:57:58 10° 210° (SSW) 2,119 4.3 -5.8°
Sets 13:00:14 0° 206° (SSW) 3,030 5.2 -5.4°
